Location: Brusselsch Zeekanaal
(50.8667°N, 4.3667°E)
Time: 02:43:54
(UTC+00:00)

Cosmos 1707 Rocket - Pass Details

Date: 08 November 2025
Orbit: 598 x 624 km, 82.5° (Epoch: 15 December)

Event Time Altitude Azimuth Distance (km) Brightness Sun altitude
Exits shadow 04:43:05 34° 322° (NW) 1,035 4.3 -19.6°
Drops below altitude 10° 04:46:10 10° 357° (N) 1,998 6.1 -19.1°
Sets 04:48:32 0° 6° (N) 2,912 7.0 -18.7°
